Voltar ao catálogo

COSMOS 571

AtivoMilitarLEO
NORAD 6682·PAYLOAD·🇷🇺 Russia

Lançado Jun 8, 1973 de Plesetsk Cosmodrome

Loading…

Próximas Passagens (próximas 24 horas)

TLE

AtualizadoSource: Space-Track

Época: Sep 14, 2026, 09:27 UTC

1 06682U 73037H   26257.39430652  .00000003  00000-0  10388-3 0  9992
2 06682  74.0183 138.9837 0103396 247.6978 227.2995 12.65927432461582

Acompanhe COSMOS 571 em tempo real com AllMySat

Download on the App Store